Time,TemperatureF,DewpointF,PressureIn,WindDirection,WindDirectionDegrees,WindSpeedMPH,WindSpeedGustMPH,Humidity,HourlyPrecipIn,Conditions,Clouds,dailyrainin,SolarRadiationWatts/m^2,SoftwareType,DateUTC
2013-12-01 00:01:00,65.2,60.6,30.06,East,98,2.0,3.0,85,0.00,,SCT035,0.36,0.00,VWS V14.00,2013-12-01 05:01:00,
2013-12-01 00:02:00,65.1,60.5,30.06,East,98,2.0,3.0,85,0.00,,SCT035,0.00,0.00,VWS V14.00,2013-12-01 05:02:00,
2013-12-01 00:07:00,64.9,60.3,30.06,East,98,0.0,0.0,85,0.00,,SCT035,0.00,0.00,VWS V14.00,2013-12-01 05:07:00,
2013-12-01 00:12:00,64.7,60.1,30.06,East,98,2.0,4.0,85,0.00,,SCT035,0.00,0.00,VWS V14.00,2013-12-01 05:12:00,
2013-12-01 00:17:00,64.6,60.0,30.06,East,98,3.0,3.0,85,0.00,,SCT035,0.00,0.00,VWS V14.00,2013-12-01 05:17:00,
2013-12-01 00:22:00,64.6,60.0,30.06,East,98,0.0,0.0,85,0.00,,SCT035,0.00,0.00,VWS V14.00,2013-12-01 05:22:00,
2013-12-01 00:27:00,64.5,59.9,30.06,East,98,2.0,3.0,85,0.00,,SCT035,0.00,0.00,VWS V14.00,2013-12-01 05:27:00,
2013-12-01 00:32:00,64.5,59.9,30.06,East,98,0.0,0.0,85,0.00,,SCT035,0.00,0.00,VWS V14.00,2013-12-01 05:32:00,
2013-12-01 00:37:00,64.4,59.8,30.06,East,98,2.0,3.0,85,0.00,,SCT035,0.00,0.00,VWS V14.00,2013-12-01 05:37:00,
2013-12-01 00:42:00,64.4,59.8,30.06,East,98,4.0,4.0,85,0.00,,SCT035,0.00,0.00,VWS V14.00,2013-12-01 05:42:00,
2013-12-01 00:47:00,64.4,59.8,30.06,East,98,2.0,4.0,85,0.00,,SCT035,0.00,0.00,VWS V14.00,2013-12-01 05:47:00,
2013-12-01 00:52:00,64.4,59.8,30.06,East,98,0.0,1.0,85,0.00,,SCT035,0.00,0.00,VWS V14.00,2013-12-01 05:52:00,
2013-12-01 00:57:00,64.3,59.7,30.06,East,98,0.0,0.0,85,0.00,,SCT035,0.00,0.00,VWS V14.00,2013-12-01 05:57:00,
2013-12-01 01:02:00,64.3,59.7,30.06,East,98,0.0,0.0,85,0.00,,SCT035,0.00,0.00,VWS V14.00,2013-12-01 06:02:00,
2013-12-01 01:07:00,64.2,59.6,30.06,East,98,2.0,3.0,85,0.00,,SCT035,0.00,0.00,VWS V14.00,2013-12-01 06:07:00,
2013-12-01 01:12:00,64.2,59.9,30.06,East,98,0.0,0.0,86,0.00,,SCT035,0.00,0.00,VWS V14.00,2013-12-01 06:12:00,
2013-12-01 01:17:00,64.1,59.8,30.06,East,98,0.0,1.0,86,0.00,,SCT035,0.00,0.00,VWS V14.00,2013-12-01 06:17:00,
2013-12-01 01:22:00,64.0,59.7,30.06,East,98,3.0,3.0,86,0.00,,SCT035,0.00,0.00,VWS V14.00,2013-12-01 06:22:00,
2013-12-01 01:27:00,63.9,59.6,30.05,East,98,0.0,3.0,86,0.00,,SCT035,0.00,0.00,VWS V14.00,2013-12-01 06:27:00,
2013-12-01 01:32:00,63.9,59.6,30.05,East,98,1.0,3.0,86,0.00,,SCT035,0.00,0.00,VWS V14.00,2013-12-01 06:32:00,
2013-12-01 01:37:00,63.8,59.5,30.05,East,98,1.0,1.0,86,0.00,,SCT035,0.00,0.00,VWS V14.00,2013-12-01 06:37:00,
2013-12-01 01:42:00,63.8,59.5,30.05,East,98,2.0,4.0,86,0.00,,SCT035,0.00,0.00,VWS V14.00,2013-12-01 06:42:00,
2013-12-01 01:47:00,63.8,59.5,30.04,East,98,0.0,4.0,86,0.00,,SCT035,0.00,0.00,VWS V14.00,2013-12-01 06:47:00,
2013-12-01 01:52:00,63.8,59.5,30.03,East,98,0.0,2.0,86,0.00,,SCT035,0.00,0.00,VWS V14.00,2013-12-01 06:52:00,
2013-12-01 01:57:00,63.8,59.5,30.03,East,98,0.0,0.0,86,0.00,,SCT035,0.00,0.00,VWS V14.00,2013-12-01 06:57:00,
2013-12-01 02:02:00,63.8,59.5,30.03,East,98,1.0,3.0,86,0.00,,SCT035,0.00,0.00,VWS V14.00,2013-12-01 07:02:00,
2013-12-01 02:07:00,63.6,59.3,30.03,East,98,0.0,0.0,86,0.00,,SCT035,0.00,0.00,VWS V14.00,2013-12-01 07:07:00,
2013-12-01 02:12:00,63.6,59.3,30.03,East,98,0.0,0.0,86,0.00,,SCT035,0.00,0.00,VWS V14.00,2013-12-01 07:12:00,
2013-12-01 02:17:00,63.5,59.2,30.03,East,98,0.0,1.0,86,0.00,,SCT035,0.00,0.00,VWS V14.00,2013-12-01 07:17:00,
2013-12-01 02:22:00,63.4,59.2,30.03,East,98,0.0,0.0,86,0.00,,SCT035,0.00,0.00,VWS V14.00,2013-12-01 07:22:00,
2013-12-01 02:27:00,63.4,59.2,30.02,East,98,0.0,0.0,86,0.00,,SCT035,0.00,0.00,VWS V14.00,2013-12-01 07:27:00,
2013-12-01 02:32:00,63.4,59.2,30.02,East,98,0.0,0.0,86,0.00,,SCT035,0.00,0.00,VWS V14.00,2013-12-01 07:32:00,
2013-12-01 02:37:00,63.2,59.0,30.02,East,98,0.0,0.0,86,0.00,,SCT035,0.00,0.00,VWS V14.00,2013-12-01 07:37:00,
2013-12-01 02:42:00,63.2,59.0,30.01,East,98,0.0,0.0,86,0.00,,SCT035,0.00,0.00,VWS V14.00,2013-12-01 07:42:00,
2013-12-01 02:47:00,63.2,59.0,30.01,East,98,0.0,0.0,86,0.00,,SCT035,0.00,0.00,VWS V14.00,2013-12-01 07:47:00,
2013-12-01 02:52:00,63.1,58.8,30.01,East,98,0.0,0.0,86,0.00,,SCT035,0.00,0.00,VWS V14.00,2013-12-01 07:52:00,
2013-12-01 02:57:00,63.1,58.8,30.01,East,98,0.0,0.0,86,0.00,,SCT035,0.00,0.00,VWS V14.00,2013-12-01 07:57:00,
2013-12-01 03:02:00,63.1,58.8,30.01,East,98,0.0,0.0,86,0.00,,SCT035,0.00,0.00,VWS V14.00,2013-12-01 08:02:00,
2013-12-01 03:07:00,62.9,58.7,30.00,East,98,0.0,0.0,86,0.00,,SCT035,0.00,0.00,VWS V14.00,2013-12-01 08:07:00,
2013-12-01 03:12:00,62.9,59.0,30.00,East,98,0.0,0.0,87,0.00,,SCT035,0.00,0.00,VWS V14.00,2013-12-01 08:12:00,
2013-12-01 03:17:00,62.8,58.9,30.00,East,98,0.0,0.0,87,0.00,,SCT035,0.00,0.00,VWS V14.00,2013-12-01 08:17:00,
2013-12-01 03:22:00,62.7,58.8,30.00,East,98,0.0,0.0,87,0.00,,SCT035,0.00,0.00,VWS V14.00,2013-12-01 08:22:00,
2013-12-01 03:27:00,62.7,58.8,30.00,East,98,0.0,1.0,87,0.00,,SCT035,0.00,0.00,VWS V14.00,2013-12-01 08:27:00,
2013-12-01 03:33:00,62.8,58.9,30.00,East,98,0.0,0.0,87,0.00,,SCT035,0.00,0.00,VWS V14.00,2013-12-01 08:33:00,
2013-12-01 03:38:00,62.7,58.8,30.00,East,98,0.0,0.0,87,0.00,,SCT035,0.00,0.00,VWS V14.00,2013-12-01 08:38:00,
2013-12-01 03:42:00,62.6,58.7,30.00,East,98,0.0,0.0,87,0.00,,SCT035,0.00,0.00,VWS V14.00,2013-12-01 08:42:00,
2013-12-01 03:48:00,62.7,58.8,30.00,East,98,1.0,2.0,87,0.00,,SCT035,0.00,0.00,VWS V14.00,2013-12-01 08:48:00,
2013-12-01 03:53:00,62.6,58.7,30.00,East,98,0.0,3.0,87,0.00,,SCT035,0.00,0.00,VWS V14.00,2013-12-01 08:53:00,
2013-12-01 03:58:00,62.6,58.7,30.01,East,98,3.0,3.0,87,0.00,,SCT035,0.00,0.00,VWS V14.00,2013-12-01 08:58:00,
2013-12-01 04:01:00,62.7,58.8,30.01,East,98,0.0,2.0,87,0.00,,SCT035,0.00,0.00,VWS V14.00,2013-12-01 09:01:00,
2013-12-01 04:06:00,62.7,58.8,30.00,East,98,0.0,0.0,87,0.00,,SCT035,0.00,0.00,VWS V14.00,2013-12-01 09:06:00,
2013-12-01 04:11:00,62.7,58.8,30.00,East,98,2.0,3.0,87,0.00,,SCT035,0.00,0.00,VWS V14.00,2013-12-01 09:11:00,
2013-12-01 04:16:00,62.8,58.9,30.00,East,98,0.0,1.0,87,0.00,,SCT035,0.00,0.00,VWS V14.00,2013-12-01 09:16:00,
2013-12-01 04:21:00,62.8,58.9,30.00,East,98,1.0,3.0,87,0.00,,SCT035,0.00,0.00,VWS V14.00,2013-12-01 09:21:00,
2013-12-01 04:26:00,62.9,59.0,30.00,East,98,0.0,0.0,87,0.00,,SCT035,0.00,0.00,VWS V14.00,2013-12-01 09:26:00,
2013-12-01 04:31:00,62.9,59.0,30.00,East,98,0.0,0.0,87,0.00,,SCT035,0.00,0.00,VWS V14.00,2013-12-01 09:31:00,
2013-12-01 04:36:00,62.9,59.0,30.00,East,98,0.0,0.0,87,0.00,,SCT035,0.00,0.00,VWS V14.00,2013-12-01 09:36:00,
2013-12-01 04:41:00,62.9,59.0,30.00,East,98,0.0,3.0,87,0.00,,SCT035,0.00,0.00,VWS V14.00,2013-12-01 09:41:00,
2013-12-01 04:46:00,62.9,59.0,30.00,East,98,0.0,2.0,87,0.00,,SCT035,0.00,0.00,VWS V14.00,2013-12-01 09:46:00,
2013-12-01 04:51:00,62.9,59.0,30.00,East,98,0.0,1.0,87,0.00,,SCT035,0.00,0.00,VWS V14.00,2013-12-01 09:51:00,
2013-12-01 04:56:00,62.9,59.0,30.00,East,98,0.0,0.0,87,0.00,,SCT035,0.00,0.00,VWS V14.00,2013-12-01 09:56:00,
2013-12-01 05:01:00,62.9,59.0,30.01,East,98,0.0,0.0,87,0.00,,SCT035,0.00,0.00,VWS V14.00,2013-12-01 10:01:00,
2013-12-01 05:06:00,62.9,59.0,30.01,East,98,0.0,0.0,87,0.00,,SCT035,0.00,0.00,VWS V14.00,2013-12-01 10:06:00,
2013-12-01 05:11:00,62.9,59.0,30.01,East,98,0.0,0.0,87,0.00,,SCT035,0.00,0.00,VWS V14.00,2013-12-01 10:11:00,
2013-12-01 05:16:00,62.9,59.0,30.01,East,98,0.0,0.0,87,0.00,,SCT035,0.00,0.00,VWS V14.00,2013-12-01 10:16:00,
2013-12-01 05:21:00,62.9,59.0,30.01,East,98,0.0,0.0,87,0.00,,SCT035,0.00,0.00,VWS V14.00,2013-12-01 10:21:00,
2013-12-01 05:26:00,62.9,59.0,30.01,East,98,0.0,0.0,87,0.00,,SCT035,0.00,0.00,VWS V14.00,2013-12-01 10:26:00,
2013-12-01 05:31:00,62.9,59.0,30.01,East,98,0.0,0.0,87,0.00,,SCT035,0.00,0.00,VWS V14.00,2013-12-01 10:31:00,
2013-12-01 05:36:00,62.9,59.0,30.01,East,98,2.0,2.0,87,0.00,,SCT035,0.00,0.00,VWS V14.00,2013-12-01 10:36:00,
2013-12-01 05:41:00,62.8,58.9,30.01,East,98,0.0,3.0,87,0.00,,SCT035,0.00,0.00,VWS V14.00,2013-12-01 10:41:00,
2013-12-01 05:46:00,62.8,58.9,30.01,East,98,0.0,0.0,87,0.00,,SCT035,0.00,0.00,VWS V14.00,2013-12-01 10:46:00,
2013-12-01 05:51:00,62.9,59.0,30.01,East,98,0.0,0.0,87,0.00,,SCT035,0.00,0.00,VWS V14.00,2013-12-01 10:51:00,
2013-12-01 05:56:00,62.8,58.9,30.01,East,98,0.0,0.0,87,0.00,,SCT035,0.00,0.00,VWS V14.00,2013-12-01 10:56:00,
2013-12-01 06:01:00,62.8,58.9,30.01,East,98,0.0,0.0,87,0.00,,SCT035,0.00,0.00,VWS V14.00,2013-12-01 11:01:00,
2013-12-01 06:06:00,62.8,58.9,30.01,East,98,0.0,0.0,87,0.00,,SCT035,0.00,0.00,VWS V14.00,2013-12-01 11:06:00,
2013-12-01 06:11:00,62.7,58.8,30.02,East,98,0.0,0.0,87,0.00,,SCT035,0.00,0.00,VWS V14.00,2013-12-01 11:11:00,
2013-12-01 06:16:00,62.7,58.8,30.01,East,98,0.0,4.0,87,0.00,,SCT035,0.00,0.00,VWS V14.00,2013-12-01 11:16:00,
2013-12-01 06:21:00,62.7,58.8,30.01,East,98,0.0,1.0,87,0.00,,SCT035,0.00,0.00,VWS V14.00,2013-12-01 11:21:00,
2013-12-01 06:26:00,62.7,58.8,30.02,East,98,0.0,0.0,87,0.00,,SCT035,0.00,0.00,VWS V14.00,2013-12-01 11:26:00,
2013-12-01 06:31:00,62.8,58.9,30.02,East,98,0.0,0.0,87,0.00,,SCT035,0.00,0.00,VWS V14.00,2013-12-01 11:31:00,
2013-12-01 06:36:00,62.8,58.9,30.02,East,98,0.0,1.0,87,0.00,,SCT035,0.00,0.00,VWS V14.00,2013-12-01 11:36:00,
2013-12-01 06:41:00,62.9,59.0,30.02,East,98,0.0,0.0,87,0.00,,SCT035,0.00,0.00,VWS V14.00,2013-12-01 11:41:00,
2013-12-01 06:46:00,62.8,58.9,30.02,East,98,0.0,0.0,87,0.00,,SCT035,0.00,0.00,VWS V14.00,2013-12-01 11:46:00,
2013-12-01 06:51:00,62.9,59.0,30.02,East,98,0.0,0.0,87,0.00,,SCT035,0.00,0.00,VWS V14.00,2013-12-01 11:51:00,
2013-12-01 06:56:00,62.9,59.0,30.03,East,98,0.0,0.0,87,0.00,,SCT035,0.00,0.00,VWS V14.00,2013-12-01 11:56:00,
2013-12-01 07:01:00,63.0,59.1,30.03,East,98,0.0,0.0,87,0.00,,SCT035,0.00,0.00,VWS V14.00,2013-12-01 12:01:00,
2013-12-01 07:06:00,63.1,59.2,30.03,East,98,2.0,3.0,87,0.00,,SCT035,0.00,5.00,VWS V14.00,2013-12-01 12:06:00,
2013-12-01 07:11:00,63.1,59.2,30.03,East,98,0.0,0.0,87,0.00,,SCT035,0.00,7.00,VWS V14.00,2013-12-01 12:11:00,
2013-12-01 07:16:00,63.1,59.2,30.03,East,98,0.0,0.0,87,0.00,,SCT035,0.00,9.00,VWS V14.00,2013-12-01 12:16:00,
2013-12-01 07:21:00,63.1,59.2,30.03,East,98,0.0,1.0,87,0.00,,SCT035,0.00,12.00,VWS V14.00,2013-12-01 12:21:00,
2013-12-01 07:26:00,63.2,59.3,30.03,East,98,0.0,0.0,87,0.00,,SCT035,0.00,19.00,VWS V14.00,2013-12-01 12:26:00,
2013-12-01 07:31:00,63.4,59.5,30.04,East,98,0.0,2.0,87,0.00,,SCT035,0.00,19.00,VWS V14.00,2013-12-01 12:31:00,
2013-12-01 07:36:00,63.5,59.6,30.04,East,98,0.0,1.0,87,0.00,,SCT035,0.00,21.00,VWS V14.00,2013-12-01 12:36:00,
2013-12-01 07:41:00,63.6,59.7,30.04,East,98,0.0,0.0,87,0.00,,SCT035,0.00,25.00,VWS V14.00,2013-12-01 12:41:00,
2013-12-01 07:46:00,63.7,59.8,30.04,East,98,0.0,0.0,87,0.00,,SCT035,0.00,21.00,VWS V14.00,2013-12-01 12:46:00,
2013-12-01 07:51:00,63.8,59.9,30.04,East,98,3.0,3.0,87,0.00,,SCT035,0.00,21.00,VWS V14.00,2013-12-01 12:51:00,
2013-12-01 07:56:00,64.0,60.1,30.04,East,98,0.0,0.0,87,0.00,,SCT035,0.00,70.00,VWS V14.00,2013-12-01 12:56:00,
2013-12-01 08:01:00,64.2,60.3,30.04,East,98,0.0,2.0,87,0.00,,SCT035,0.00,23.00,VWS V14.00,2013-12-01 13:01:00,
2013-12-01 08:06:00,64.5,60.5,30.05,East,98,0.0,0.0,87,0.00,,SCT035,0.00,72.00,VWS V14.00,2013-12-01 13:06:00,
2013-12-01 08:11:00,64.9,60.9,30.05,East,98,0.0,3.0,87,0.00,,SCT035,0.00,72.00,VWS V14.00,2013-12-01 13:11:00,
2013-12-01 08:16:00,65.3,61.3,30.05,East,98,4.0,5.0,87,0.00,,SCT035,0.00,21.00,VWS V14.00,2013-12-01 13:16:00,
2013-12-01 08:21:00,65.6,61.6,30.05,East,98,0.0,0.0,87,0.00,,SCT035,0.00,23.00,VWS V14.00,2013-12-01 13:21:00,
2013-12-01 08:26:00,65.7,61.7,30.05,East,98,0.0,0.0,87,0.00,,SCT035,0.00,28.00,VWS V14.00,2013-12-01 13:26:00,
2013-12-01 08:31:00,65.8,61.8,30.05,East,98,2.0,3.0,87,0.00,,SCT035,0.00,28.00,VWS V14.00,2013-12-01 13:31:00,
2013-12-01 08:36:00,66.0,62.0,30.04,East,98,3.0,3.0,87,0.00,,FEW040,0.00,25.00,VWS V14.00,2013-12-01 13:36:00,
2013-12-01 08:41:00,66.2,61.9,30.05,East,98,0.0,2.0,86,0.00,,FEW040,0.00,23.00,VWS V14.00,2013-12-01 13:41:00,
2013-12-01 08:46:00,66.4,62.4,30.05,East,98,0.0,0.0,87,0.00,,FEW040,0.00,25.00,VWS V14.00,2013-12-01 13:46:00,
2013-12-01 08:51:00,66.6,62.3,30.05,East,98,0.0,0.0,86,0.00,,FEW040,0.00,30.00,VWS V14.00,2013-12-01 13:51:00,
2013-12-01 08:56:00,66.8,62.5,30.05,East,98,0.0,2.0,86,0.00,,FEW040,0.00,40.00,VWS V14.00,2013-12-01 13:56:00,
2013-12-01 09:01:00,67.0,62.7,30.05,East,98,0.0,0.0,86,0.00,,FEW040,0.00,49.00,VWS V14.00,2013-12-01 14:01:00,
2013-12-01 09:06:00,67.3,63.0,30.05,East,98,3.0,3.0,86,0.00,,FEW040,0.00,93.00,VWS V14.00,2013-12-01 14:06:00,
2013-12-01 09:11:00,67.8,63.5,30.05,East,98,2.0,4.0,86,0.00,,FEW040,0.00,60.00,VWS V14.00,2013-12-01 14:11:00,
2013-12-01 09:16:00,68.3,64.0,30.05,East,98,1.0,4.0,86,0.00,,FEW040,0.00,79.00,VWS V14.00,2013-12-01 14:16:00,
2013-12-01 09:21:00,68.6,64.2,30.05,East,98,0.0,0.0,86,0.00,,FEW040,0.00,42.00,VWS V14.00,2013-12-01 14:21:00,
2013-12-01 09:26:00,68.9,64.6,30.05,East,98,3.0,3.0,86,0.00,,FEW040,0.00,65.00,VWS V14.00,2013-12-01 14:26:00,
2013-12-01 09:31:00,69.1,64.7,30.05,East,98,2.0,4.0,86,0.00,,FEW040,0.00,83.00,VWS V14.00,2013-12-01 14:31:00,
2013-12-01 09:36:00,69.5,65.1,30.05,East,98,2.0,3.0,86,0.00,,BKN034,0.00,127.00,VWS V14.00,2013-12-01 14:36:00,
2013-12-01 09:41:00,69.9,65.2,30.05,East,98,1.0,1.0,85,0.00,,BKN034,0.00,105.00,VWS V14.00,2013-12-01 14:41:00,
2013-12-01 09:46:00,70.4,65.7,30.05,East,98,0.0,3.0,85,0.00,,BKN034,0.00,107.00,VWS V14.00,2013-12-01 14:46:00,
2013-12-01 09:51:00,71.0,66.3,30.05,East,98,2.0,5.0,85,0.00,,BKN034,0.00,109.00,VWS V14.00,2013-12-01 14:51:00,
2013-12-01 09:56:00,71.4,66.7,30.05,East,98,5.0,5.0,85,0.00,,BKN034,0.00,53.00,VWS V14.00,2013-12-01 14:56:00,
2013-12-01 10:01:00,71.7,66.9,30.05,East,98,0.0,0.0,85,0.00,,BKN034,0.00,84.00,VWS V14.00,2013-12-01 15:01:00,
2013-12-01 10:06:00,72.1,67.0,30.05,East,98,0.0,0.0,84,0.00,,BKN034,0.00,123.00,VWS V14.00,2013-12-01 15:06:00,
2013-12-01 10:11:00,72.6,67.5,30.05,East,98,0.0,0.0,84,0.00,,BKN034,0.00,116.00,VWS V14.00,2013-12-01 15:11:00,
2013-12-01 10:16:00,73.0,67.9,30.05,East,98,0.0,0.0,84,0.00,,BKN034,0.00,42.00,VWS V14.00,2013-12-01 15:16:00,
2013-12-01 10:21:00,73.4,68.3,30.05,East,98,0.0,0.0,84,0.00,,BKN034,0.00,54.00,VWS V14.00,2013-12-01 15:21:00,
2013-12-01 10:26:00,73.7,68.2,30.04,East,98,4.0,5.0,83,0.00,,BKN034,0.00,81.00,VWS V14.00,2013-12-01 15:26:00,
2013-12-01 10:31:00,73.9,68.4,30.04,East,98,2.0,4.0,83,0.00,,BKN034,0.00,65.00,VWS V14.00,2013-12-01 15:31:00,
2013-12-01 10:36:00,74.0,68.2,30.04,East,98,2.0,4.0,82,0.00,,BKN050,0.00,76.00,VWS V14.00,2013-12-01 15:36:00,
2013-12-01 10:41:00,74.0,68.2,30.04,East,98,2.0,4.0,82,0.00,,BKN050,0.00,72.00,VWS V14.00,2013-12-01 15:41:00,
2013-12-01 10:46:00,73.9,68.1,30.04,East,98,6.0,6.0,82,0.00,,BKN050,0.00,109.00,VWS V14.00,2013-12-01 15:46:00,
2013-12-01 10:51:00,73.7,67.9,30.03,East,98,2.0,4.0,82,0.00,,BKN050,0.00,65.00,VWS V14.00,2013-12-01 15:51:00,
2013-12-01 10:56:00,73.6,67.8,30.03,East,98,3.0,5.0,82,0.00,,BKN050,0.00,47.00,VWS V14.00,2013-12-01 15:56:00,
2013-12-01 11:01:00,73.7,68.2,30.03,East,98,5.0,5.0,83,0.23,,BKN050,0.02,49.00,VWS V14.00,2013-12-01 16:01:00,
2013-12-01 11:06:00,73.4,67.9,30.03,East,98,4.0,7.0,83,0.11,,BKN050,0.03,53.00,VWS V14.00,2013-12-01 16:06:00,
2013-12-01 11:11:00,72.9,67.4,30.03,East,97,2.0,3.0,83,0.11,,BKN050,0.03,79.00,VWS V14.00,2013-12-01 16:11:00,
2013-12-01 11:16:00,72.9,67.8,30.03,East,97,2.0,4.0,84,0.06,,BKN050,0.03,65.00,VWS V14.00,2013-12-01 16:16:00,
2013-12-01 11:21:00,72.8,67.7,30.03,East,97,5.0,5.0,84,0.04,,BKN050,0.03,56.00,VWS V14.00,2013-12-01 16:21:00,
2013-12-01 11:26:00,72.9,67.8,30.02,East,97,0.0,0.0,84,0.00,,BKN050,0.03,72.00,VWS V14.00,2013-12-01 16:26:00,
2013-12-01 11:31:00,73.4,68.3,30.02,East,97,0.0,2.0,84,0.00,,BKN050,0.03,70.00,VWS V14.00,2013-12-01 16:31:00,
2013-12-01 11:36:00,73.7,68.6,30.02,East,97,0.0,0.0,84,0.00,,BKN065,0.03,77.00,VWS V14.00,2013-12-01 16:36:00,
2013-12-01 11:41:00,73.9,68.8,30.01,East,97,0.0,1.0,84,0.00,,BKN065,0.03,65.00,VWS V14.00,2013-12-01 16:41:00,
2013-12-01 11:46:00,73.8,68.3,30.01,East,97,3.0,6.0,83,0.00,,BKN065,0.03,47.00,VWS V14.00,2013-12-01 16:46:00,
2013-12-01 11:51:00,73.5,68.0,30.01,East,96,0.0,3.0,83,0.00,,BKN065,0.03,40.00,VWS V14.00,2013-12-01 16:51:00,
2013-12-01 11:56:00,73.4,67.9,30.01,East,96,0.0,4.0,83,0.00,,BKN065,0.03,39.00,VWS V14.00,2013-12-01 16:56:00,
2013-12-01 12:01:00,73.1,67.6,30.01,East,96,2.0,4.0,83,0.00,,BKN065,0.03,47.00,VWS V14.00,2013-12-01 17:01:00,
2013-12-01 12:06:00,73.1,68.0,30.00,East,96,3.0,3.0,84,0.00,,BKN065,0.03,65.00,VWS V14.00,2013-12-01 17:06:00,
2013-12-01 12:11:00,72.8,67.3,30.00,East,96,0.0,0.0,83,0.00,,BKN065,0.03,51.00,VWS V14.00,2013-12-01 17:11:00,
2013-12-01 12:16:00,72.9,67.4,30.00,East,96,1.0,2.0,83,0.00,,BKN065,0.03,42.00,VWS V14.00,2013-12-01 17:16:00,
2013-12-01 12:21:00,73.0,67.9,30.00,East,96,0.0,1.0,84,0.00,,BKN065,0.03,42.00,VWS V14.00,2013-12-01 17:21:00,
2013-12-01 12:26:00,73.2,68.1,30.00,East,96,0.0,0.0,84,0.00,,BKN065,0.03,39.00,VWS V14.00,2013-12-01 17:26:00,
2013-12-01 12:31:00,73.1,68.0,30.00,East,96,4.0,9.0,84,0.00,,BKN065,0.03,32.00,VWS V14.00,2013-12-01 17:31:00,
2013-12-01 12:36:00,72.7,67.6,29.99,WNW,299,5.0,6.0,84,0.00,,BKN065,0.03,28.00,VWS V14.00,2013-12-01 17:36:00,
2013-12-01 12:41:00,72.4,67.3,30.00,WNW,298,3.0,6.0,84,0.00,,BKN065,0.03,23.00,VWS V14.00,2013-12-01 17:41:00,
2013-12-01 12:46:00,72.2,67.1,30.00,West,273,7.0,10.0,84,0.20,,BKN065,0.05,19.00,VWS V14.00,2013-12-01 17:46:00,
2013-12-01 12:51:00,71.8,66.7,29.99,West,270,7.0,7.0,84,0.12,,BKN065,0.05,21.00,VWS V14.00,2013-12-01 17:51:00,
2013-12-01 12:56:00,71.3,66.2,29.99,West,261,5.0,7.0,84,0.07,,BKN065,0.06,19.00,VWS V14.00,2013-12-01 17:56:00,
2013-12-01 13:01:00,71.2,66.1,29.99,West,259,3.0,5.0,84,0.56,,BKN065,0.11,19.00,VWS V14.00,2013-12-01 18:01:00,
2013-12-01 13:06:00,71.1,66.4,29.98,West,259,3.0,5.0,85,0.80,,BKN065,0.17,25.00,VWS V14.00,2013-12-01 18:06:00,
2013-12-01 13:11:00,70.8,66.1,29.98,West,261,5.0,6.0,85,0.65,,BKN065,0.23,30.00,VWS V14.00,2013-12-01 18:11:00,
2013-12-01 13:16:00,70.9,66.2,29.98,West,261,5.0,7.0,85,0.48,,BKN065,0.28,33.00,VWS V14.00,2013-12-01 18:16:00,
2013-12-01 13:21:00,71.1,66.4,29.97,West,260,4.0,5.0,85,0.19,,BKN065,0.29,37.00,VWS V14.00,2013-12-01 18:21:00,
2013-12-01 13:26:00,71.0,66.3,29.97,West,262,4.0,5.0,85,0.07,,BKN065,0.29,35.00,VWS V14.00,2013-12-01 18:26:00,
2013-12-01 13:31:00,71.0,66.3,29.97,West,262,2.0,2.0,85,0.05,,BKN065,0.30,33.00,VWS V14.00,2013-12-01 18:31:00,
2013-12-01 13:36:00,71.1,66.4,29.97,West,262,0.0,3.0,85,0.05,,BKN045,0.30,37.00,VWS V14.00,2013-12-01 18:36:00,
2013-12-01 13:41:00,71.0,66.3,29.97,West,262,2.0,4.0,85,0.08,,BKN045,0.31,44.00,VWS V14.00,2013-12-01 18:41:00,
2013-12-01 13:46:00,71.1,66.4,29.97,West,262,0.0,0.0,85,0.07,,BKN045,0.31,53.00,VWS V14.00,2013-12-01 18:46:00,
2013-12-01 13:51:00,71.2,66.5,29.96,West,262,0.0,0.0,85,0.04,,BKN045,0.31,62.00,VWS V14.00,2013-12-01 18:51:00,
2013-12-01 13:56:00,71.3,66.6,29.96,West,262,0.0,0.0,85,0.00,,BKN045,0.31,74.00,VWS V14.00,2013-12-01 18:56:00,
2013-12-01 14:01:00,71.6,66.9,29.96,West,262,0.0,0.0,85,0.00,,BKN045,0.31,72.00,VWS V14.00,2013-12-01 19:01:00,
2013-12-01 14:06:00,71.4,66.3,29.96,West,262,0.0,0.0,84,0.00,,BKN045,0.31,70.00,VWS V14.00,2013-12-01 19:06:00,
2013-12-01 14:11:00,71.7,66.9,29.95,West,262,0.0,0.0,85,0.00,,BKN045,0.31,67.00,VWS V14.00,2013-12-01 19:11:00,
2013-12-01 14:16:00,71.7,66.9,29.95,West,262,0.0,0.0,85,0.00,,BKN045,0.31,81.00,VWS V14.00,2013-12-01 19:16:00,
2013-12-01 14:21:00,72.1,67.0,29.95,West,262,0.0,0.0,84,0.00,,BKN045,0.31,70.00,VWS V14.00,2013-12-01 19:21:00,
2013-12-01 14:26:00,72.2,67.1,29.95,West,262,0.0,3.0,84,0.00,,BKN045,0.31,44.00,VWS V14.00,2013-12-01 19:26:00,
2013-12-01 14:31:00,71.8,66.7,29.95,West,262,0.0,2.0,84,0.00,,BKN045,0.31,33.00,VWS V14.00,2013-12-01 19:31:00,
2013-12-01 14:36:00,71.5,66.4,29.95,West,262,0.0,0.0,84,0.00,,BKN085,0.32,37.00,VWS V14.00,2013-12-01 19:36:00,
2013-12-01 14:38:00,71.5,66.4,29.94,West,262,0.0,0.0,84,0.00,,BKN085,0.32,39.00,VWS V14.00,2013-12-01 19:38:00,
2013-12-01 14:43:00,71.4,66.3,29.94,West,262,0.0,0.0,84,0.08,,BKN085,0.33,40.00,VWS V14.00,2013-12-01 19:43:00,
2013-12-01 14:48:00,71.5,66.4,29.95,West,262,0.0,2.0,84,0.10,,BKN085,0.34,32.00,VWS V14.00,2013-12-01 19:48:00,
2013-12-01 14:53:00,71.5,66.4,29.95,West,262,0.0,0.0,84,0.35,,BKN085,0.36,26.00,VWS V14.00,2013-12-01 19:53:00,
2013-12-01 14:58:00,71.4,66.3,29.95,West,262,0.0,0.0,84,0.10,,BKN085,0.37,26.00,VWS V14.00,2013-12-01 19:58:00,
2013-12-01 15:03:00,71.3,66.2,29.94,West,262,0.0,0.0,84,0.10,,BKN085,0.37,30.00,VWS V14.00,2013-12-01 20:03:00,
2013-12-01 15:08:00,71.3,66.2,29.94,West,262,2.0,3.0,84,0.07,,BKN085,0.38,37.00,VWS V14.00,2013-12-01 20:08:00,
2013-12-01 15:13:00,71.2,66.1,29.94,West,262,3.0,3.0,84,0.07,,BKN085,0.38,40.00,VWS V14.00,2013-12-01 20:13:00,
2013-12-01 15:18:00,71.1,66.0,29.94,West,262,0.0,2.0,84,0.05,,BKN085,0.38,40.00,VWS V14.00,2013-12-01 20:18:00,
2013-12-01 15:23:00,71.2,66.1,29.94,West,262,3.0,4.0,84,0.00,,BKN085,0.38,42.00,VWS V14.00,2013-12-01 20:23:00,
2013-12-01 15:28:00,71.2,66.1,29.93,West,262,2.0,5.0,84,0.00,,BKN085,0.38,47.00,VWS V14.00,2013-12-01 20:28:00,
2013-12-01 15:33:00,71.1,66.0,29.93,West,262,0.0,1.0,84,0.00,,OVC019,0.38,53.00,VWS V14.00,2013-12-01 20:33:00,
2013-12-01 15:38:00,71.2,66.1,29.93,West,277,5.0,5.0,84,0.00,,OVC019,0.38,53.00,VWS V14.00,2013-12-01 20:38:00,
2013-12-01 15:43:00,71.3,66.2,29.93,West,280,3.0,6.0,84,0.00,,OVC019,0.38,46.00,VWS V14.00,2013-12-01 20:43:00,
2013-12-01 15:48:00,70.9,65.8,29.93,West,280,3.0,4.0,84,0.00,,OVC019,0.38,35.00,VWS V14.00,2013-12-01 20:48:00,
2013-12-01 15:53:00,70.9,65.8,29.93,West,280,0.0,1.0,84,0.00,, +RA,0.38,26.00,VWS V14.00,2013-12-01 20:53:00,
2013-12-01 15:58:00,71.2,66.1,29.94,West,280,2.0,4.0,84,0.00,, +RA,0.38,19.00,VWS V14.00,2013-12-01 20:58:00,
2013-12-01 16:03:00,71.4,66.3,29.94,WNW,282,3.0,3.0,84,0.00,, +RA,0.38,16.00,VWS V14.00,2013-12-01 21:03:00,
2013-12-01 16:08:00,71.3,65.9,29.94,WNW,282,2.0,3.0,83,0.00,, +RA,0.38,18.00,VWS V14.00,2013-12-01 21:08:00,
2013-12-01 16:13:00,71.3,65.9,29.94,WNW,282,0.0,2.0,83,0.00,, +RA,0.38,12.00,VWS V14.00,2013-12-01 21:13:00,
2013-12-01 16:18:00,71.2,65.8,29.94,WNW,283,1.0,3.0,83,0.00,, +RA,0.38,12.00,VWS V14.00,2013-12-01 21:18:00,
2013-12-01 16:23:00,71.1,65.7,29.94,WNW,283,1.0,4.0,83,0.00,, +RA,0.38,14.00,VWS V14.00,2013-12-01 21:23:00,
2013-12-01 16:28:00,71.0,65.6,29.94,WNW,292,3.0,4.0,83,0.00,, +RA,0.38,14.00,VWS V14.00,2013-12-01 21:28:00,
2013-12-01 16:33:00,70.9,65.5,29.94,WNW,296,3.0,4.0,83,0.00,,OVC031,0.38,9.00,VWS V14.00,2013-12-01 21:33:00,
2013-12-01 16:38:00,70.9,65.5,29.95,NW,304,4.0,6.0,83,0.00,,OVC031,0.38,7.00,VWS V14.00,2013-12-01 21:38:00,
2013-12-01 16:43:00,70.8,65.4,29.94,NW,307,4.0,5.0,83,0.00,,OVC031,0.38,7.00,VWS V14.00,2013-12-01 21:43:00,
2013-12-01 16:48:00,70.6,65.2,29.94,NW,314,3.0,7.0,83,0.00,,OVC031,0.38,5.00,VWS V14.00,2013-12-01 21:48:00,
2013-12-01 16:53:00,70.4,65.0,29.94,NW,321,2.0,4.0,83,0.00,, +RA,0.38,0.00,VWS V14.00,2013-12-01 21:53:00,
2013-12-01 16:58:00,70.2,64.8,29.94,North,5,5.0,7.0,83,0.00,, +RA,0.38,0.00,VWS V14.00,2013-12-01 21:58:00,
2013-12-01 17:03:00,70.0,64.6,29.94,North,5,6.0,8.0,83,0.00,, +RA,0.38,0.00,VWS V14.00,2013-12-01 22:03:00,
2013-12-01 17:08:00,69.8,64.4,29.94,NNE,21,6.0,7.0,83,0.00,, +RA,0.38,0.00,VWS V14.00,2013-12-01 22:08:00,
2013-12-01 17:13:00,69.9,64.5,29.94,NE,34,3.0,6.0,83,0.00,, +RA,0.38,0.00,VWS V14.00,2013-12-01 22:13:00,
2013-12-01 17:18:00,69.9,64.5,29.94,NE,34,2.0,6.0,83,0.00,, +RA,0.38,0.00,VWS V14.00,2013-12-01 22:18:00,
2013-12-01 17:23:00,69.8,64.4,29.94,NE,34,2.0,4.0,83,0.00,, +RA,0.38,0.00,VWS V14.00,2013-12-01 22:23:00,
2013-12-01 17:28:00,69.8,64.4,29.95,NE,34,2.0,2.0,83,0.00,, +RA,0.38,0.00,VWS V14.00,2013-12-01 22:28:00,
2013-12-01 17:33:00,69.7,64.3,29.95,NE,34,0.0,0.0,83,0.00,,RA,0.38,0.00,VWS V14.00,2013-12-01 22:33:00,
2013-12-01 17:38:00,69.5,64.1,29.95,NE,34,0.0,0.0,83,0.00,,RA,0.38,0.00,VWS V14.00,2013-12-01 22:38:00,
2013-12-01 17:43:00,69.2,63.8,29.95,NE,34,2.0,3.0,83,0.00,,RA,0.39,0.00,VWS V14.00,2013-12-01 22:43:00,
2013-12-01 17:48:00,69.0,63.6,29.95,NE,34,0.0,0.0,83,0.00,,RA,0.39,0.00,VWS V14.00,2013-12-01 22:48:00,
2013-12-01 17:53:00,69.0,63.6,29.95,NE,34,0.0,0.0,83,0.07,,RA,0.40,0.00,VWS V14.00,2013-12-01 22:53:00,
2013-12-01 17:58:00,69.0,63.6,29.95,NE,34,0.0,0.0,83,0.12,,RA,0.41,0.00,VWS V14.00,2013-12-01 22:58:00,
2013-12-01 18:03:00,68.8,63.4,29.95,NE,34,0.0,0.0,83,0.11,,RA,0.42,0.00,VWS V14.00,2013-12-01 23:03:00,
2013-12-01 18:08:00,68.7,63.3,29.95,NE,34,2.0,3.0,83,0.15,,RA,0.44,0.00,VWS V14.00,2013-12-01 23:08:00,
2013-12-01 18:13:00,68.6,63.2,29.95,NE,34,0.0,0.0,83,0.10,,RA,0.44,0.00,VWS V14.00,2013-12-01 23:13:00,
2013-12-01 18:18:00,68.5,63.1,29.95,NE,34,0.0,0.0,83,0.09,,RA,0.45,0.00,VWS V14.00,2013-12-01 23:18:00,
2013-12-01 18:23:00,68.5,62.8,29.96,NE,34,0.0,0.0,82,0.06,,RA,0.45,0.00,VWS V14.00,2013-12-01 23:23:00,
2013-12-01 18:28:00,68.5,62.8,29.96,NE,34,2.0,3.0,82,0.06,,RA,0.46,0.00,VWS V14.00,2013-12-01 23:28:00,
2013-12-01 18:33:00,68.5,62.8,29.96,NE,34,0.0,2.0,82,0.14,,RA,0.48,0.00,VWS V14.00,2013-12-01 23:33:00,
2013-12-01 18:38:00,68.5,62.8,29.96,NE,34,0.0,3.0,82,0.29,,RA,0.50,0.00,VWS V14.00,2013-12-01 23:38:00,
2013-12-01 18:43:00,68.5,62.8,29.96,NE,34,2.0,4.0,82,0.30,,RA,0.52,0.00,VWS V14.00,2013-12-01 23:43:00,
2013-12-01 18:48:00,68.4,62.7,29.96,NNE,15,2.0,4.0,82,0.20,,RA,0.54,0.00,VWS V14.00,2013-12-01 23:48:00,
2013-12-01 18:53:00,68.4,62.7,29.96,NNE,16,3.0,6.0,82,0.19,,RA,0.55,0.00,VWS V14.00,2013-12-01 23:53:00,
2013-12-01 18:58:00,68.4,62.7,29.96,NNE,16,1.0,4.0,82,0.15,,RA,0.56,0.00,VWS V14.00,2013-12-01 23:58:00,
2013-12-01 19:03:00,68.3,62.6,29.96,NNE,17,3.0,6.0,82,0.13,,RA,0.57,0.00,VWS V14.00,2013-12-02 00:03:00,
2013-12-01 19:08:00,68.2,62.5,29.96,NNE,17,3.0,5.0,82,0.09,,RA,0.58,0.00,VWS V14.00,2013-12-02 00:08:00,
2013-12-01 19:13:00,68.3,62.6,29.96,NNE,17,3.0,5.0,82,0.08,,RA,0.58,0.00,VWS V14.00,2013-12-02 00:13:00,
2013-12-01 19:18:00,68.3,62.6,29.96,NNE,20,4.0,5.0,82,0.07,,RA,0.59,0.00,VWS V14.00,2013-12-02 00:18:00,
2013-12-01 19:23:00,68.2,62.5,29.96,NNE,21,5.0,5.0,82,0.07,,RA,0.59,0.00,VWS V14.00,2013-12-02 00:23:00,
2013-12-01 19:28:00,68.0,62.3,29.96,NNE,32,4.0,5.0,82,0.06,,RA,0.60,0.00,VWS V14.00,2013-12-02 00:28:00,
2013-12-01 19:33:00,68.0,62.3,29.96,NNE,32,4.0,4.0,82,0.06,,RA,0.60,0.00,VWS V14.00,2013-12-02 00:33:00,
2013-12-01 19:38:00,67.9,61.9,29.96,NE,34,3.0,4.0,81,0.04,,RA,0.60,0.00,VWS V14.00,2013-12-02 00:38:00,
2013-12-01 19:43:00,67.9,61.9,29.96,NE,34,4.0,5.0,81,0.00,,RA,0.60,0.00,VWS V14.00,2013-12-02 00:43:00,
2013-12-01 19:48:00,67.9,61.9,29.96,NE,34,2.0,4.0,81,0.00,,RA,0.60,0.00,VWS V14.00,2013-12-02 00:48:00,
2013-12-01 19:53:00,67.9,61.9,29.96,NE,34,2.0,4.0,81,0.00,,RA,0.60,0.00,VWS V14.00,2013-12-02 00:53:00,
2013-12-01 19:58:00,67.9,61.9,29.96,NE,34,3.0,4.0,81,0.00,,RA,0.60,0.00,VWS V14.00,2013-12-02 00:58:00,
2013-12-01 20:03:00,67.9,61.9,29.96,NE,34,4.0,4.0,81,0.00,,RA,0.60,0.00,VWS V14.00,2013-12-02 01:03:00,
2013-12-01 20:08:00,67.9,61.9,29.96,NE,34,3.0,4.0,81,0.00,,RA,0.60,0.00,VWS V14.00,2013-12-02 01:08:00,
2013-12-01 20:13:00,67.9,61.9,29.96,NE,34,4.0,4.0,81,0.00,,RA,0.61,0.00,VWS V14.00,2013-12-02 01:13:00,
2013-12-01 20:18:00,67.9,61.9,29.96,NE,34,3.0,5.0,81,0.00,,RA,0.61,0.00,VWS V14.00,2013-12-02 01:18:00,
2013-12-01 20:23:00,67.9,61.9,29.96,NE,34,0.0,3.0,81,0.00,,RA,0.61,0.00,VWS V14.00,2013-12-02 01:23:00,
2013-12-01 20:28:00,67.9,61.9,29.96,NE,34,2.0,4.0,81,0.00,,RA,0.61,0.00,VWS V14.00,2013-12-02 01:28:00,
2013-12-01 20:33:00,67.9,61.9,29.96,NE,34,3.0,4.0,81,0.00,,-RA,0.61,0.00,VWS V14.00,2013-12-02 01:33:00,
2013-12-01 20:38:00,67.8,61.4,29.95,NE,34,0.0,1.0,80,0.00,,-RA,0.61,0.00,VWS V14.00,2013-12-02 01:38:00,
2013-12-01 20:43:00,67.8,61.4,29.95,NE,34,3.0,6.0,80,0.00,,-RA,0.61,0.00,VWS V14.00,2013-12-02 01:43:00,
2013-12-01 20:48:00,67.8,61.4,29.95,NE,34,1.0,4.0,80,0.00,,-RA,0.61,0.00,VWS V14.00,2013-12-02 01:48:00,
2013-12-01 20:53:00,67.8,61.4,29.95,NE,34,2.0,4.0,80,0.00,,-RA,0.61,0.00,VWS V14.00,2013-12-02 01:53:00,
2013-12-01 20:58:00,67.8,61.4,29.94,NE,34,2.0,4.0,80,0.00,,-RA,0.61,0.00,VWS V14.00,2013-12-02 01:58:00,
2013-12-01 21:03:00,67.8,61.4,29.95,NE,34,0.0,3.0,80,0.00,,-RA,0.61,0.00,VWS V14.00,2013-12-02 02:03:00,
2013-12-01 21:08:00,67.8,61.4,29.94,NE,34,0.0,0.0,80,0.00,,-RA,0.61,0.00,VWS V14.00,2013-12-02 02:08:00,
2013-12-01 21:13:00,67.8,61.1,29.94,NE,34,3.0,4.0,79,0.00,,-RA,0.61,0.00,VWS V14.00,2013-12-02 02:13:00,
2013-12-01 21:18:00,67.8,61.1,29.94,NE,34,0.0,0.0,79,0.00,,-RA,0.61,0.00,VWS V14.00,2013-12-02 02:18:00,
2013-12-01 21:23:00,67.9,61.2,29.94,NE,34,0.0,3.0,79,0.00,,-RA,0.61,0.00,VWS V14.00,2013-12-02 02:23:00,
2013-12-01 21:28:00,67.8,61.1,29.94,NE,34,2.0,3.0,79,0.00,,-RA,0.61,0.00,VWS V14.00,2013-12-02 02:28:00,
2013-12-01 21:33:00,67.8,61.1,29.94,NE,34,2.0,3.0,79,0.00,,OVC029,0.61,0.00,VWS V14.00,2013-12-02 02:33:00,
2013-12-01 21:38:00,67.8,61.1,29.93,NE,34,4.0,5.0,79,0.00,,OVC029,0.61,0.00,VWS V14.00,2013-12-02 02:38:00,
2013-12-01 21:43:00,67.8,61.1,29.93,NE,34,2.0,5.0,79,0.00,,OVC029,0.61,0.00,VWS V14.00,2013-12-02 02:43:00,
2013-12-01 21:48:00,67.9,60.8,29.93,NE,34,3.0,5.0,78,0.00,,OVC029,0.61,0.00,VWS V14.00,2013-12-02 02:48:00,
2013-12-01 21:53:00,67.9,60.8,29.93,NE,34,3.0,4.0,78,0.00,,OVC029,0.61,0.00,VWS V14.00,2013-12-02 02:53:00,
2013-12-01 21:58:00,67.9,60.8,29.93,NE,34,4.0,4.0,78,0.00,,OVC029,0.61,0.00,VWS V14.00,2013-12-02 02:58:00,
2013-12-01 22:03:00,67.9,60.8,29.93,NE,34,5.0,8.0,78,0.00,,OVC029,0.61,0.00,VWS V14.00,2013-12-02 03:03:00,
2013-12-01 22:08:00,67.9,60.8,29.93,NE,34,1.0,4.0,78,0.00,,OVC029,0.61,0.00,VWS V14.00,2013-12-02 03:08:00,
2013-12-01 22:13:00,67.9,60.8,29.92,NE,34,2.0,3.0,78,0.00,,OVC029,0.61,0.00,VWS V14.00,2013-12-02 03:13:00,
2013-12-01 22:18:00,67.9,60.4,29.92,NE,34,0.0,0.0,77,0.00,,OVC029,0.61,0.00,VWS V14.00,2013-12-02 03:18:00,
2013-12-01 22:23:00,67.9,60.4,29.92,NE,34,0.0,1.0,77,0.00,,OVC029,0.61,0.00,VWS V14.00,2013-12-02 03:23:00,
2013-12-01 22:28:00,67.9,60.4,29.92,NE,34,0.0,0.0,77,0.00,,OVC029,0.61,0.00,VWS V14.00,2013-12-02 03:28:00,
2013-12-01 22:33:00,67.9,60.4,29.92,NE,34,3.0,4.0,77,0.00,,OVC070,0.61,0.00,VWS V14.00,2013-12-02 03:33:00,
2013-12-01 22:39:00,67.8,60.3,29.92,NE,34,0.0,0.0,77,0.00,,OVC070,0.61,0.00,VWS V14.00,2013-12-02 03:39:00,
2013-12-01 22:44:00,67.8,60.3,29.92,NE,34,0.0,1.0,77,0.00,,OVC070,0.61,0.00,VWS V14.00,2013-12-02 03:44:00,
2013-12-01 22:49:00,67.8,60.3,29.92,NE,34,0.0,0.0,77,0.00,,OVC070,0.61,0.00,VWS V14.00,2013-12-02 03:49:00,
2013-12-01 22:54:00,67.8,60.0,29.92,NE,34,0.0,0.0,76,0.00,,OVC070,0.61,0.00,VWS V14.00,2013-12-02 03:54:00,
2013-12-01 22:59:00,67.8,60.0,29.92,NE,34,0.0,0.0,76,0.00,,OVC070,0.61,0.00,VWS V14.00,2013-12-02 03:59:00,
2013-12-01 23:04:00,67.8,60.0,29.92,NE,34,0.0,0.0,76,0.00,,OVC070,0.61,0.00,VWS V14.00,2013-12-02 04:04:00,
2013-12-01 23:09:00,67.7,59.9,29.91,NE,34,0.0,0.0,76,0.00,,OVC070,0.61,0.00,VWS V14.00,2013-12-02 04:09:00,
2013-12-01 23:14:00,67.7,59.9,29.91,NE,34,0.0,0.0,76,0.00,,OVC070,0.61,0.00,VWS V14.00,2013-12-02 04:14:00,
2013-12-01 23:19:00,67.7,59.9,29.91,NE,34,0.0,0.0,76,0.00,,OVC070,0.61,0.00,VWS V14.00,2013-12-02 04:19:00,
2013-12-01 23:24:00,67.7,59.5,29.91,NE,34,0.0,1.0,75,0.00,,OVC070,0.61,0.00,VWS V14.00,2013-12-02 04:24:00,
2013-12-01 23:29:00,67.7,59.5,29.91,NE,34,0.0,0.0,75,0.00,,OVC070,0.61,0.00,VWS V14.00,2013-12-02 04:29:00,
2013-12-01 23:34:00,67.6,59.4,29.91,NE,34,0.0,0.0,75,0.00,,OVC070,0.61,0.00,VWS V14.00,2013-12-02 04:34:00,
2013-12-01 23:39:00,67.6,59.4,29.91,NE,34,0.0,0.0,75,0.00,,OVC070,0.61,0.00,VWS V14.00,2013-12-02 04:39:00,
2013-12-01 23:44:00,67.6,59.4,29.91,NE,34,0.0,0.0,75,0.00,,OVC070,0.61,0.00,VWS V14.00,2013-12-02 04:44:00,
2013-12-01 23:49:00,67.6,59.4,29.90,NE,34,0.0,2.0,75,0.00,,OVC070,0.61,0.00,VWS V14.00,2013-12-02 04:49:00,
2013-12-01 23:54:00,67.5,59.3,29.90,NE,34,0.0,3.0,75,0.00,,OVC070,0.61,0.00,VWS V14.00,2013-12-02 04:54:00,
2013-12-01 23:59:00,67.5,58.9,29.90,NE,34,1.0,1.0,74,0.00,,OVC070,0.61,0.00,VWS V14.00,2013-12-02 04:59:00,